Tracking 31027 objects as of 19-Jul-2025
HD Live streaming from Space Station
objects crossing your sky now

HAWK-2C

Track HAWK-2C now!
10-day predictions


NORAD ID: 47502
Int'l Code: 2021-006CT
Perigee: 482.0 km
Apogee: 490.8 km
Inclination: 97.3 °
Period: 94.2 minutes
Semi major axis: 6857 km
RCS: Unknown
Launch date: January 24, 2021
Source: United States (US)
Launch site: AIR FORCE EASTERN TEST RANGE (AFETR)
Your satellite tracking list
FLOCK 4X 28
Track 1 satellite(s)




NASA's NSSDC Master Catalog

Two Line Element Set (TLE):
1 47502U 21006CT  25199.55679358  .00004914  00000-0  17783-3 0  9998
2 47502  97.2773 245.8490 0006383 324.2421  35.8391 15.28852239248429
Source of the keplerian elements: AFSPC